Location: Armentières
(49.1835°N, 3.3858°E)
Time: 22:55:43
(UTC+00:00)

Daily predictions for brighter satellites

Satellite Brightness Start Highest point End
(mag) Time Altitude Azimuth Time Altitude Azimuth Time Altitude Azimuth
Cosmos 1697 Rocket 3.1 17:42:13 10° SW 17:47:48 68° WNW 17:53:27 10° NNE
SL-08 R/B 4.3 17:43:31 10° N 17:48:20 56° WNW 17:53:10 10° SSW
Okean 2 3.6 17:45:06 10° NNW 17:49:16 78° W 17:53:23 10° S
SL-14 R/B 3.3 17:49:26 10° N 17:53:23 61° ENE 17:57:21 10° SSE
MOS 1-B 4.4 17:49:02 10° SE 17:54:43 59° ENE 18:00:26 10° N
Cosmos 1733 3.1 17:51:34 10° S 17:55:16 69° E 17:59:00 10° NNE
Cosmos 2360 Rocket 3.9 17:54:46 10° ESE 17:55:43 10° E 17:56:41 10° E
Cosmos 1809 Rocket 4.5 17:52:46 10° S 17:58:42 59° E 18:04:40 10° NNE
MINOTAUR 4 R/B 3.9 17:55:53 10° NNE 17:59:24 87° ESE 18:02:52 10° SSW
Cosmos 540 Rocket 4.5 17:56:08 10° NNW 18:01:04 50° WSW 18:05:59 10° S
Cosmos 1766 3.8 17:58:05 10° SSE 18:01:41 36° E 18:05:20 10° NNE
Cosmos 1674 Rocket 3.6 17:58:13 10° N 18:02:37 64° ENE 18:07:01 10° SSE
Meteor 2-10 4.2 17:57:39 10° S 18:03:12 64° E 18:08:36 10° NNE
Cosmos 1025 Rocket 4.5 18:02:01 10° NNE 18:05:01 18° ENE 18:07:57 10° ESE
ATLAS 2AS CENTAUR R/B 4.4 17:59:54 10° WNW 18:06:06 27° N 18:12:04 10° NE
YAOGAN 1 2.7 18:02:38 10° SE 18:06:49 50° ENE 18:11:01 10° N
Cosmos 968 Rocket 4.2 18:03:38 10° SSE 18:08:13 31° ESE 18:12:48 10° NE
Okean O Rocket 1.9 18:06:30 10° SE 18:10:40 46° ENE 18:14:54 10° N
Cosmos 2084 4.2 18:08:39 10° WSW 18:12:18 44° NW 18:16:01 10° NE
IRIDIUM 106 4.5 18:07:18 10° SSE 18:12:19 51° E 18:17:23 10° NNE
Lacrosse 4 Rocket 3.0 18:10:43 10° SE 18:12:57 14° ESE 18:13:56 13° E
SKYMED 2 3.7 18:09:22 10° NNE 18:13:44 82° WNW 18:18:05 10° SSW
Meteor 2-5 Rocket 4.1 18:09:37 10° N 18:14:50 40° ENE 18:20:01 10° SE
Nadezhda 4 Rocket 4.1 18:09:30 10° SSE 18:15:38 55° E 18:21:46 10° NNE
Cosmos 2285 Rocket 4.0 18:14:55 10° NNW 18:21:17 75° ENE 18:27:40 10° SSE
PSLV R/B 4.2 18:19:20 10° S 18:22:58 62° WSW 18:26:37 10° NNW
USA 186 3.3 18:22:42 18° E 18:23:47 21° ENE 18:26:23 10° NNE
Cosmos 1726 2.0 18:20:08 10° S 18:23:47 84° E 18:27:27 10° N
Cosmos 2322 Rocket 3.0 18:19:20 10° SSE 18:24:03 27° ESE 18:28:47 10° NE
Cosmos 1470 3.5 18:25:09 10° SSE 18:28:32 30° E 18:31:54 10° NNE
Cosmos 1378 Rocket 3.8 18:24:48 10° NNW 18:29:10 71° W 18:33:29 10° S
CZ-4B R/B 3.2 18:23:47 10° SSE 18:29:11 88° WSW 18:34:44 10° NNW
Cosmos 1980 Rocket 2.7 18:24:20 10° SW 18:29:54 63° WNW 18:35:30 10° NNE
Cosmos 1975 Rocket 3.8 18:26:19 10° N 18:30:17 31° ENE 18:33:08 16° SE
ARGOS Delta rocket 3.9 18:25:44 10° NNE 18:31:03 82° ESE 18:36:01 10° S
Cosmos 2292 Rocket 3.7 18:33:44 10° S 18:38:39 52° E 18:42:26 10° NNE
Cosmos 1733 Rocket 4.5 18:38:39 10° SW 18:42:52 42° WNW 18:47:07 10° N
USA 215 3.4 18:37:38 10° NE 18:44:09 74° NNW 18:50:40 10° WSW
COBE Rocket 4.4 18:42:41 10° S 18:47:27 60° W 18:52:09 10° NNW
Cosmos 1844 Rocket 2.9 18:43:57 10° NNW 18:49:32 53° NE 18:52:59 23° SE
Cosmos 2278 3.9 18:47:36 10° SW 18:53:17 73° WNW 18:59:00 10° NNE
SL-16 R/B 2.2 18:48:30 10° SSW 18:54:03 61° ESE 18:59:40 10° NE
Cosmos 1570 Rocket 4.1 18:49:35 10° NNW 18:54:52 77° WSW 19:00:04 10° SSE
Landsat 5 4.0 18:51:17 10° NNE 18:55:33 40° E 18:59:43 10° SSE
Cosmos 1092 Rocket 4.0 18:50:55 10° S 18:57:07 64° E 19:03:17 10° NNE
DMSP B5D1-3 4.5 18:55:49 10° NNE 19:00:57 90° NW 19:06:04 10° SSW
Resurs 01 Rocket 3.0 19:01:19 22° ENE 19:01:19 22° ENE 19:04:29 10° NNE
SJ-6B 2.7 19:02:07 39° SE 19:03:12 56° ENE 19:06:57 10° N
Cosmos 2278 Rocket 3.9 19:00:36 10° N 19:04:10 17° NE 19:05:41 15° NE
Cosmos 1437 Rocket 2.8 19:02:26 10° SSW 19:06:09 72° WNW 19:09:54 10° N
H-2A R/B 3.6 19:07:11 24° NE 19:07:11 24° NE 19:09:39 10° N
Gbstr 26 Del rocket 4.5 18:59:08 10° WSW 19:06:50 86° NNW 19:12:39 22° ENE
Cosmos 2263 Rocket 4.1 19:03:29 10° NW 19:08:23 30° WSW 19:13:15 10° SSW
Meteor 1-24 Rocket 3.5 19:04:57 10° NNW 19:10:17 87° WSW 19:15:40 10° S
Resurs 1-3 3.7 19:11:26 43° ESE 19:12:20 51° ENE 19:16:37 10° N
SL-4 R/B 3.7 19:11:37 10° W 19:15:36 31° SW 19:17:52 20° S
MetOp-A 4.3 19:17:19 31° NE 19:17:19 31° NE 19:20:12 10° N
Cosmos 2084 Rocket 3.5 19:15:00 10° NW 19:18:48 62° SW 19:19:51 43° S
USA 267 4.4 19:14:42 10° SSE 19:20:39 37° SW 19:26:40 10° WNW
Okean-O 2.5 19:20:29 40° SSE 19:22:01 78° ENE 19:26:28 10° NNW
CZ-4 R/B 2.9 19:19:32 10° SSW 19:23:26 37° W 19:27:21 10° NNW
Cosmos 1486 Rocket 4.1 19:18:22 10° S 19:23:31 54° ESE 19:28:44 10° NNE
OBJECT-B 2.1 19:24:56 29° NW 19:24:56 29° NW 19:26:29 10° NNW
Cosmos 1844 3.5 19:18:31 10° NNW 19:24:07 78° ENE 19:26:12 40° SE
IGS 5A 3.3 19:24:37 44° SSE 19:25:55 88° W 19:30:05 10° NNW
DNEPR-1 R/B 3.9 19:22:56 10° SSW 19:27:34 63° ESE 19:30:36 26° NE
Meteor 1-22 Rocket 4.3 19:23:08 10° SSW 19:28:35 75° WNW 19:34:16 10° N
S3M 4.3 19:23:25 10° N 19:29:22 44° ENE 19:30:10 41° E
Cosmos 773 Rocket 4.3 19:25:27 10° NNW 19:30:35 47° ENE 19:31:00 46° ENE
Cosmos 1300 Rocket 3.3 19:30:14 59° SSE 19:30:57 74° E 19:35:19 10° NNE
CSL-04 Debris 4.3 19:28:02 17° S 19:32:12 74° WSW 19:37:37 10° NNW
Cosmos 2360 Rocket 2.1 19:33:01 10° SSW 19:38:36 65° ESE 19:44:11 10° NNE
USA 81 4.3 19:33:37 10° N 19:38:52 67° W 19:43:22 14° S
Cosmos 1782 Rocket 4.2 19:35:08 10° SSW 19:39:23 54° WNW 19:43:41 10° N
Cosmos 1025 Rocket 3.7 19:38:44 10° NNW 19:42:57 53° W 19:44:51 29° SSW
Cosmos 158 Rocket 4.5 19:40:50 10° NNW 19:44:48 40° NE 19:44:48 40° NE
Okean O Rocket 4.0 19:43:54 10° SW 19:47:15 21° W 19:50:38 10° NW
Cosmos 1417 Rocket 4.3 19:43:46 10° N 19:49:55 71° E 19:51:03 58° SE
Lacrosse 4 Rocket 1.8 19:46:54 10° SW 19:50:17 57° WSW 19:50:17 57° WSW
Cosmos 2026 Rocket 4.4 19:46:52 10° SSW 19:52:50 61° WNW 19:58:52 10° N
USA 186 3.8 19:55:51 28° W 19:55:57 28° W 19:58:55 10° NW
CSL-04 Rocket 4.3 19:55:05 23° SSW 19:58:13 51° W 20:03:32 10° NNW
ATLAS 2AS CENTAUR R/B 3.9 19:53:00 10° NW 19:59:20 30° NNE 20:01:35 25° NE
MOS 1 4.1 20:01:33 75° E 20:01:46 77° ENE 20:07:27 10° NNW
Cosmos 1553 Rocket 4.2 19:57:20 10° NNW 20:03:41 73° W 20:06:33 35° S
Landsat 7 4.3 20:04:06 53° SW 20:04:41 57° W 20:09:21 10° NNW
deb Chang Zheng 4 4.3 20:05:56 48° NW 20:05:56 48° NW 20:09:03 10° NNW
SPOT 1/Viking Rocket 3.6 20:07:54 72° N 20:07:54 72° N 20:12:33 10° NNW
Cosmos 2322 Rocket 2.8 20:02:08 10° SW 20:07:45 57° WNW 20:13:24 10° NNE
NOSS 3-4 (A) 3.8 20:04:24 10° NW 20:11:09 66° NE 20:12:04 61° E
NOSS 3-4 (C) 3.8 20:04:30 10° NW 20:11:15 66° NE 20:12:10 60° E
Ariane Rocket 3.8 20:16:26 44° N 20:16:26 44° N 20:20:01 10° N
NOSS 3-3 (A) 4.1 20:15:47 10° SW 20:30:26 - NE 20:20:03 55° SW
NOSS 3-3 (C) 4.2 20:15:52 10° SW 20:30:32 - NE 20:19:58 52° SW
Aureole 1 Rocket 4.0 20:18:21 10° SSW 20:25:43 84° WNW 20:31:29 10° NNE
USA 215 4.0 20:24:15 32° NE 20:26:45 47° N 20:32:56 10° WNW
USA 281 3.8 20:27:40 42° NE 20:27:40 42° NE 20:33:17 10° NNW
Cosmos 1844 Rocket 4.2 20:28:18 10° NW 20:33:09 30° WSW 20:34:40 26° SW
Resurs 01 Rocket 3.3 20:38:52 32° NW 20:38:52 32° NW 20:41:34 10° NNW
SL-16 R/B 4.0 20:33:40 10° WSW 20:38:35 29° NW 20:43:31 10° NNE
Cosmos 2315 Rocket 4.2 20:32:36 10° N 20:37:56 63° N 20:37:56 63° N
Terra 4.0 20:42:43 18° N 20:42:43 18° N 20:44:03 10° N
Cosmos 1943 Rocket 4.0 20:36:08 10° N 20:38:59 21° NNE 20:38:59 21° NNE
Cosmos 2278 Rocket 3.2 20:43:50 10° NNW 20:47:32 39° N 20:47:32 39° N
Gbstr 26 Del rocket 4.5 20:46:48 10° W 20:54:50 75° N 20:55:06 74° NNE
Cosmos 2369 Rocket 4.4 20:56:16 10° N 20:58:48 16° NNE 20:58:48 16° NNE
Cosmos 2333 Rocket 4.3 21:18:31 19° NNE 21:18:31 19° NNE 21:20:11 10° NNE
Cosmos 2360 Rocket 4.0 21:18:14 10° WSW 21:23:03 28° NW 21:27:53 10° NNE
ATLAS 2AS CENTAUR R/B 3.8 21:44:23 10° NW 21:49:00 41° NNW 21:49:00 41° NNW
